星链-11144 [DTC] (STARLINK-11144 [DTC] )

导读

STARLINK-11144是美国太空探索技术公司(SpaceX)星链互联网卫星星座的一员,于2024年6月5日发射入轨。星链项目旨在通过近地轨道卫星群,为全球范围提供高速互联网接入服务,该卫星加入星座后,进一步扩充了星链系统的覆盖能力与服务容量,助力全球网络覆盖的完善。

基本信息
目录编号:
59955
目录名称:
STARLINK-11144
国际标识:
2024-107L
轨道中心:
EARTH
卫星名称:
星链-11144 [DTC]
卫星全名:
星链-11144 [DTC] (STARLINK-11144 [DTC] )
卫星状态:
在轨 (已飞行828 天)
发射日期:
2024-06-05 UTC
国别 :
美国 (US)
星等 :
--
该卫星已列入 空间交会检测服务 Space Conjunction Data Service (SCDS) ,当前飞行风险评估等级: 无高风险
轨道信息
数据来源 国际轨道数据
星历时间: 2026-09-11T01:52:07+0800
15小时前
查看轨道信息
半长轴: 6737.883km
偏心率: 0.0000831
轨道倾角: 53.158°
近地点辐角 142.317°
升交点赤经 58.816°
平近点角 217.790°
近地点: 359.186km
远地点: 360.306km
周期: 91.737分钟
每日圈数: 15.697036
详细信息
固有亮度:
5
最大亮度:
0.3
卫星平台:
Starlink v2.0 mini
覆盖范围:
全球
运营商:
太空探索技术公司
运营商所在国:
美国
制造商(研发单位):
太空探索技术公司
制造商所在国:
美国
使用方式:
暂无
卫星简介
星链(Starlink)计划是由太空探索技术公司(SpaceX)提出的一个巨型低轨卫星互联网星座项目,计划在2019年至2024年间在太空搭建由约1.2万颗卫星组成的“星链”网络,其中1584颗将部署在地球上空550千米处的近地轨道,并从2020年开始工作。该卫星仍在工作。
2D轨道图
3D轨道图
轨道高度分析图
轨道倾角分析图
轨道综合分析图
查看轨道综合分析图
与全量物体交会距离演化趋势
与全量物体交会风险概率演化趋势